Weather in Kyparissia

Greece     37°15′01″N   21°40′10″E
temp.,
°C
wind,
m/s
gust,
m/s
humid.,
%
clouds,
%
prec.,
mm/h
press.,
hPa
HPBL,
m
13 may, thu
thu1300:00+14nw229311 0.1 1012125
03:00+14wnw239324 0.1 1011163
06:00+14nw229432 0.0 1011115
09:00+17wnw24720 0.0 1011499
12:00+19w45600 0.0 1012794
15:00+19wnw56620 0.0 1012849
18:00+18wnw45590 0.0 1013725
21:00+14wnw23840 0.0 1013201
14 may, fri
fri1400:00+14nw23890 0.0 1014233
03:00+13nnw22870 0.0 1014163
06:00+12nne12860 0.0 101473
09:00+17nw23590 0.0 1015493
12:00+20wnw35460 0.0 1016897
15:00+20wnw354738 0.0 1016854
18:00+19nw23490 0.0 1015523
21:00+15wnw11730 0.0 101515
15 may, sat
sat1500:00+14ene11770 0.0 101523
03:00+14ene116811 0.0 101424
06:00+14e1158100 0.0 101321
09:00+19nne0146100 0.0 1013190
12:00+22w2241100 0.0 1013777
15:00+20w234897 0.0 1012681
18:00+20w33540 0.1 1011853
21:00+15nw22850 0.1 101176
16 may, sun
sun1600:00+14nnw34895 0.0 1011206
03:00+13nw349013 0.1 1011175
06:00+13nnw359116 0.0 1011264
09:00+16nnw59734 0.0 1011885
12:00+19nw79615 0.0 10121080
15:00+19nw7106191 0.0 10111031
18:00+19nw6106596 0.0 10111074
21:00+16nnw598341 0.0 1012611
17 may, mon
mon1700:00+14nnw48905 0.0 1013424
03:00+13nnw36911 0.0 1013259
06:00+14nnw269312 0.0 1013288
09:00+18nw24700 0.0 1013373
12:00+20wnw46600 0.0 1014580
15:00+22wnw46550 0.0 1014644
18:00+20wnw34620 0.0 1014418
21:00+16nw12840 0.0 101457